Terug naar catalogus

STARLINK-32884

ActiefCommunicatieVLEO
NORAD 62953·PAYLOAD·🇺🇸 United States

Gelanceerd Feb 11, 2025 vanaf Vandenberg Space Force Base

Loading…

Volgende Passages (komende 24 uur)

TLE

VersSource: CelesTrak SupGP

Epoch: Sep 15, 2026, 02:41 UTC

1 62953C 25029F   26258.11229167 -.00030200  00000+0 -89251-3 0  2587
2 62953  53.1579  66.6767 0000939  87.2331 238.5254 15.34397452    13

Volg STARLINK-32884 in realtime met AllMySat

Download on the App Store